[[{"header":{"parameterUnit":"m.s-1","parameterCategory":1,"la1":30.2991,"la2":30.254,"lo1":-89.0895,"lo2":-89.0444,"dy":0.0017,"dx":0.0017,"nx":28,"ny":28,"refTime":"2024-08-09T09:00:00:Z","depth":0,"parameterNumber":2,"parameterNumberName":"U-component_of_WINDS"},"data":[0,0,0,0,0,0,0,0,0,0,0,0,0,0,0,0,0,0,0,0,0,0,0,0,0,0,0,0,0,0,0,0,0,0,0,0,0,0,0,0,0,0,0,0,0,0,0,0,0,0,0,0,0,0,0,0,0,0,-1.2826,-1.2827,0,-1.2903,-1.2903,-1.2904,-1.2849,-1.2847,-1.2845,-1.2842,-1.2921,-1.2925,-1.293,0,0,0,0,0,0,0,0,0,0,0,0,0,-1.263,-1.2634,-1.2826,-1.2827,-1.2828,-1.2902,-1.2904,-1.2905,-1.285,-1.2847,-1.2844,-1.2841,-1.292,-1.2925,-1.293,0,0,0,0,0,0,0,0,0,0,0,0,0,-1.2712,-1.2636,-1.2825,-1.2809,-1.2809,-1.2902,-1.2904,-1.2905,-1.285,-1.2847,-1.2843,-1.284,-1.2918,-1.2924,-1.2931,-1.3045,0,0,-1.2951,-1.2954,0,0,0,0,0,0,0,0,-1.2708,-1.2719,-1.2811,-1.2811,-1.281,-1.2863,-1.2864,-1.2952,-1.2851,-1.2835,-1.2842,-1.2838,-1.2905,-1.2912,-1.2935,-1.3049,-1.3052,-1.2952,-1.2956,-1.2958,-1.296,0,0,0,0,0,0,0,-1.2702,-1.2716,-1.2856,-1.2812,-1.2812,-1.2798,-1.2805,-1.288,-1.2889,-1.2836,-1.2832,-1.2842,-1.2904,-1.2928,-1.2936,-1.3053,-1.2951,-1.2957,-1.2961,-1.2964,-1.3263,-1.3267,0,0,0,0,0,0,-1.2698,-1.2711,-1.2854,-1.2858,-1.2749,-1.2804,-1.2813,-1.2849,-1.2888,-1.2891,-1.2845,-1.2839,-1.2919,-1.2928,-1.2939,-1.3074,-1.2958,-1.2965,-1.2968,-1.3259,-1.3264,-1.3268,0,0,0,0,0,0,-1.2694,-1.2711,-1.285,-1.2784,-1.2801,-1.2812,-1.2853,-1.2853,-1.2877,-1.2895,-1.2896,-1.2868,-1.2917,-1.2929,-1.3019,-1.3076,-1.2967,-1.2973,-1.3254,-1.3261,-1.3266,-1.3347,0,0,0,0,0,0,-1.2688,-1.271,-1.2754,-1.2785,-1.2804,-1.293,-1.2857,-1.2857,-1.2889,-1.2882,-1.2918,-1.292,-1.2915,-1.3009,-1.3025,-1.3083,-1.2979,-1.3249,-1.3257,-1.3264,-1.3339,-1.3355,-1.3368,0,0,0,0,0,-1.2682,-1.2774,-1.2756,-1.2774,-1.2859,-1.2933,-1.2944,-1.2936,-1.2894,-1.2938,-1.2949,-1.2919,-1.3067,-1.3019,-1.3036,-1.3097,-1.3246,-1.3255,-1.3264,-1.3333,-1.3352,-1.3368,0,0,0,0,0,0,-1.2749,-1.2778,-1.2759,-1.2864,-1.2896,-1.2924,-1.2979,-1.2957,-1.3002,-1.2994,-1.2982,-1.299,-1.3084,-1.3099,-1.3045,-1.3209,-1.315,-1.3163,-1.3196,-1.3214,-1.3229,-1.3224,-1.2984,0,0,0,0,0,-1.2776,-1.2834,-1.2855,-1.2946,-1.2963,-1.2969,-1.3,-1.2991,-1.3025,-1.3038,-1.3056,-1.309,-1.3143,-1.3179,-1.323,-1.334,-1.3347,-1.3391,-1.3405,-1.3417,-1.3429,-1.3488,-1.3508,-1.3298,-1.3298,-1.3298,0,0,-1.2833,-1.2855,-1.2893,-1.296,-1.2985,-1.3044,-1.2981,-1.3047,-1.3091,-1.3048,-1.3134,-1.3148,-1.3184,-1.3284,-1.3329,-1.33,-1.3488,-1.3429,-1.3438,-1.3444,-1.3499,-1.3519,-1.3537,-1.3304,-1.3303,-1.3302,0,0,-1.2967,-1.299,-1.3068,-1.3093,-1.313,-1.3133,-1.3151,-1.3182,-1.319,-1.3275,-1.3244,-1.3296,-1.3389,-1.3416,-1.3442,-1.3585,-1.3559,-1.3601,-1.3678,-1.3736,-1.3752,-1.3767,-1.3818,-1.3836,-1.3613,-1.3613,-1.3613,0,-1.3033,-1.3122,-1.311,-1.3179,-1.3209,-1.3172,-1.3251,-1.3276,-1.3328,-1.335,-1.3316,-1.3431,-1.3453,-1.3559,-1.3594,-1.3616,-1.3636,-1.3598,-1.3751,-1.3765,-1.3779,-1.3827,-1.3846,-1.3618,-1.3617,-1.3617,-1.3616,0,-1.3201,-1.3264,-1.3322,-1.3373,-1.3409,-1.3482,-1.3481,-1.352,-1.3506,-1.3512,-1.3599,-1.3624,-1.3679,-1.3702,-1.3691,-1.3806,-1.3787,-1.3752,-1.3693,-1.3804,-1.3849,-1.3868,-1.3625,-1.3623,-1.3622,-1.362,0,0,-1.3382,-1.3424,-1.3446,-1.3468,-1.3506,-1.3554,-1.3624,-1.3678,-1.3711,-1.3747,-1.3806,-1.3885,-1.3853,-1.3882,-1.3873,-1.3923,-1.4034,-1.3882,-1.3883,-1.391,-1.4163,-1.4189,-1.4211,-1.4016,-1.402,-1.4023,-1.416,0,-1.3519,-1.3643,-1.3633,-1.375,-1.3807,-1.3772,-1.3833,-1.3863,-1.387,-1.3918,-1.3925,-1.3982,-1.3935,-1.3952,-1.4,-1.4011,-1.4085,-1.4,-1.4071,-1.4074,-1.4064,-1.4235,-1.4263,-1.4392,-1.4177,-1.418,-1.4182,0,-1.3695,-1.3737,-1.386,-1.3888,-1.3911,-1.3967,-1.4014,-1.4062,-1.4094,-1.4095,-1.4127,-1.4109,-1.4179,-1.4117,-1.4214,-1.4156,-1.4184,-1.4193,-1.4198,-1.4205,-1.4136,-1.4247,-1.4432,-1.4452,-1.421,-1.4208,-1.4206,0,-1.3815,-1.3903,-1.3987,-1.4007,-1.4042,-1.4082,-1.4098,-1.4126,-1.4158,-1.4199,-1.422,-1.4269,-1.4296,-1.4334,-1.4328,-1.4283,-1.4427,-1.4364,-1.443,-1.443,-1.4463,-1.4461,-1.4656,-1.448,-1.448,-1.4479,-1.4479,0,-1.3969,-1.4046,-1.4041,-1.4094,-1.4178,-1.4165,-1.4249,-1.426,-1.4286,-1.4339,-1.4311,-1.4361,-1.4351,-1.4401,-1.4397,-1.4478,-1.449,-1.4493,-1.4491,-1.4496,-1.4496,-1.4515,-1.4506,-1.4484,-1.4483,-1.4482,-1.4481,0,-1.4119,-1.4119,-1.4208,-1.4233,-1.4241,-1.4302,-1.4323,-1.4372,-1.4376,-1.4443,-1.4458,-1.4464,-1.4522,-1.452,-1.4585,-1.4582,-1.4681,-1.4669,-1.4671,-1.4669,-1.4735,-1.4729,-1.495,-1.4978,-1.4783,-1.4785,-1.4786,0,-1.4218,-1.4275,-1.4306,-1.434,-1.4358,-1.4413,-1.4445,-1.4435,-1.447,-1.451,-1.4554,-1.4608,-1.4651,-1.4744,-1.4754,-1.4803,-1.4792,-1.4866,-1.48,-1.4802,-1.4794,-1.4791,-1.4796,-1.488,-1.4882,-1.4884,-1.4885,0,-1.4393,-1.439,-1.4438,-1.4486,-1.4525,-1.4562,-1.4596,-1.4625,-1.4618,-1.4658,-1.4716,-1.475,-1.4816,-1.487,-1.4917,-1.4933,-1.4908,-1.4906,-1.4924,-1.493,-1.4929,-1.4931,-1.4707,-1.4901,-1.49,-1.4898,-1.4898,-1.4897,-1.4521,-1.457,-1.4599,-1.4653,-1.4677,-1.4709,-1.4756,-1.4765,-1.4814,-1.4867,-1.4857,-1.4922,-1.4951,-1.5011,-1.5031,-1.5082,-1.5055,-1.5081,-1.5088,-1.5095,-1.5102,-1.492,-1.509,-1.5089,-1.5089,-1.5089,-1.5088,0,-1.4695,-1.4712,-1.4761,-1.4809,-1.4852,-1.4824,-1.4859,-1.4897,-1.4954,-1.4983,-1.5026,-1.5092,-1.5144,-1.5157,-1.5207,-1.5245,-1.5235,-1.5258,-1.5256,-1.526,-1.5123,-1.5103,-1.5266,-1.5266,-1.5266,-1.5266,-1.5266,-1.5266,-1.4791,-1.4873,-1.4873,-1.4967,-1.4982,-1.5046,-1.5069,-1.5098,-1.5121,-1.5196,-1.5239,-1.5247,-1.5269,-1.532,-1.5367,-1.5369,-1.5389,-1.5417,-1.5415,-1.5287,-1.527,-1.5253,-1.5234,-1.5422,-1.5422,-1.5548,-1.5549,-1.555]},{"header":{"parameterUnit":"m.s-1","parameterCategory":1,"la1":30.2991,"la2":30.254,"lo1":-89.0895,"lo2":-89.0444,"dy":0.0017,"dx":0.0017,"nx":28,"ny":28,"refTime":"2024-08-09T09:00:00:Z","depth":0,"parameterNumber":3,"parameterNumberName":"V-component_of_WINDS"},"data":[0,0,0,0,0,0,0,0,0,0,0,0,0,0,0,0,0,0,0,0,0,0,0,0,0,0,0,0,0,0,0,0,0,0,0,0,0,0,0,0,0,0,0,0,0,0,0,0,0,0,0,0,0,0,0,0,0,0,-4.2353,-4.2353,0,-4.2395,-4.2395,-4.2396,-4.2299,-4.2296,-4.2293,-4.229,-4.2333,-4.2337,-4.2341,0,0,0,0,0,0,0,0,0,0,0,0,0,-4.2189,-4.2193,-4.2353,-4.2353,-4.2354,-4.2395,-4.2395,-4.2396,-4.2299,-4.2296,-4.2292,-4.2288,-4.2332,-4.2336,-4.2341,0,0,0,0,0,0,0,0,0,0,0,0,0,-4.2249,-4.2194,-4.2353,-4.2311,-4.2307,-4.2394,-4.2395,-4.2396,-4.23,-4.2296,-4.2291,-4.2287,-4.233,-4.2336,-4.2342,-4.2472,0,0,-4.236,-4.2363,0,0,0,0,0,0,0,0,-4.2245,-4.2255,-4.2316,-4.2314,-4.231,-4.2337,-4.2353,-4.2421,-4.2301,-4.2303,-4.229,-4.2284,-4.2338,-4.2343,-4.2361,-4.2474,-4.2476,-4.2361,-4.2365,-4.2367,-4.2369,0,0,0,0,0,0,0,-4.2241,-4.2252,-4.2369,-4.2317,-4.2314,-4.229,-4.2293,-4.2366,-4.2346,-4.2302,-4.2296,-4.2302,-4.2335,-4.2356,-4.2361,-4.2476,-4.2361,-4.2366,-4.237,-4.2372,-4.2696,-4.2701,0,0,0,0,0,0,-4.2243,-4.225,-4.2368,-4.2371,-4.2266,-4.2296,-4.23,-4.2333,-4.2345,-4.2342,-4.2306,-4.2297,-4.2347,-4.2354,-4.2363,-4.2515,-4.2367,-4.2373,-4.2376,-4.2691,-4.2697,-4.2703,0,0,0,0,0,0,-4.2239,-4.2254,-4.2366,-4.2308,-4.2321,-4.2304,-4.2342,-4.2336,-4.2356,-4.2347,-4.2343,-4.233,-4.2344,-4.2354,-4.2445,-4.2515,-4.2375,-4.2381,-4.2685,-4.2693,-4.27,-4.2821,0,0,0,0,0,0,-4.2235,-4.2254,-4.2303,-4.231,-4.2324,-4.2449,-4.2346,-4.234,-4.2367,-4.2356,-4.2369,-4.2367,-4.2341,-4.2437,-4.2451,-4.2521,-4.2386,-4.2679,-4.2689,-4.2698,-4.281,-4.2831,-4.2849,0,0,0,0,0,-4.223,-4.2336,-4.2306,-4.2321,-4.2386,-4.2453,-4.2461,-4.243,-4.2373,-4.2422,-4.2416,-4.2366,-4.2505,-4.2447,-4.2462,-4.2535,-4.2674,-4.2686,-4.2697,-4.2802,-4.2827,-4.2849,0,0,0,0,0,0,-4.2338,-4.2336,-4.2303,-4.2415,-4.2435,-4.2437,-4.2498,-4.2458,-4.2495,-4.2483,-4.2442,-4.2446,-4.2545,-4.2548,-4.2484,-4.266,-4.258,-4.2595,-4.2654,-4.2679,-4.2698,-4.2695,-4.2391,0,0,0,0,0,-4.2375,-4.243,-4.2425,-4.2524,-4.2535,-4.2515,-4.2543,-4.2517,-4.2536,-4.2544,-4.2545,-4.2566,-4.2613,-4.2646,-4.269,-4.281,-4.2811,-4.2868,-4.2887,-4.2903,-4.2917,-4.298,-4.3005,-4.2739,-4.2739,-4.2739,0,0,-4.2451,-4.2457,-4.2494,-4.2546,-4.2558,-4.2615,-4.2523,-4.2588,-4.263,-4.2554,-4.264,-4.2641,-4.2661,-4.2768,-4.2814,-4.2774,-4.299,-4.2917,-4.293,-4.2935,-4.2994,-4.3019,-4.3041,-4.2747,-4.2746,-4.2745,0,0,-4.262,-4.2631,-4.2714,-4.2728,-4.2747,-4.2733,-4.2753,-4.2761,-4.2759,-4.2844,-4.2788,-4.2837,-4.2921,-4.2937,-4.2957,-4.3131,-4.3086,-4.3146,-4.3248,-4.331,-4.3331,-4.3349,-4.3411,-4.3434,-4.3159,-4.316,-4.316,0,-4.2713,-4.2798,-4.2761,-4.283,-4.2854,-4.2787,-4.2871,-4.2886,-4.292,-4.2937,-4.2891,-4.2994,-4.3003,-4.3112,-4.3154,-4.3172,-4.3193,-4.3145,-4.3331,-4.3349,-4.3366,-4.3424,-4.3447,-4.3167,-4.3166,-4.3165,-4.3165,0,-4.2911,-4.297,-4.3035,-4.3068,-4.3099,-4.3175,-4.315,-4.3186,-4.3156,-4.3147,-4.3234,-4.3242,-4.3286,-4.331,-4.3282,-4.3414,-4.3389,-4.3338,-4.3256,-4.3399,-4.3453,-4.3475,-4.3177,-4.3175,-4.3173,-4.3171,0,0,-4.3151,-4.3162,-4.3186,-4.32,-4.3216,-4.3261,-4.3334,-4.3376,-4.3407,-4.3432,-4.3492,-4.3563,-4.3516,-4.3538,-4.3511,-4.3566,-4.3703,-4.3508,-4.3508,-4.3544,-4.3848,-4.3887,-4.3914,-4.3673,-4.3677,-4.368,-4.3847,0,-4.3318,-4.3442,-4.3411,-4.3534,-4.3588,-4.3525,-4.3587,-4.3604,-4.3597,-4.3641,-4.3633,-4.3684,-4.3618,-4.3631,-4.3682,-4.3675,-4.3763,-4.3663,-4.3728,-4.3731,-4.3725,-4.3942,-4.3983,-4.414,-4.3868,-4.3871,-4.3874,0,-4.3529,-4.3562,-4.3691,-4.3697,-4.3719,-4.3776,-4.3811,-4.3855,-4.3872,-4.3863,-4.3887,-4.3849,-4.392,-4.3838,-4.3935,-4.3867,-4.3891,-4.3892,-4.3897,-4.3903,-4.3811,-4.3953,-4.4189,-4.4213,-4.3907,-4.3904,-4.3902,0,-4.3691,-4.3767,-4.3853,-4.3867,-4.3877,-4.3919,-4.3925,-4.3937,-4.3964,-4.3996,-4.4013,-4.4052,-4.4074,-4.4105,-4.4078,-4.4021,-4.418,-4.4095,-4.4174,-4.4175,-4.4211,-4.4209,-4.4454,-4.4226,-4.4226,-4.4226,-4.4225,0,-4.3881,-4.3963,-4.3926,-4.398,-4.4068,-4.4031,-4.412,-4.4118,-4.413,-4.4182,-4.4129,-4.4179,-4.4141,-4.4187,-4.4167,-4.425,-4.426,-4.4255,-4.4248,-4.426,-4.4261,-4.4276,-4.4264,-4.4232,-4.423,-4.4229,-4.4228,0,-4.4077,-4.4056,-4.4146,-4.4148,-4.415,-4.4215,-4.4216,-4.4266,-4.4254,-4.432,-4.4333,-4.4315,-4.4367,-4.4343,-4.4398,-4.4384,-4.4491,-4.447,-4.4485,-4.448,-4.456,-4.4553,-4.4824,-4.4858,-4.4608,-4.461,-4.4612,0,-4.42,-4.4261,-4.4269,-4.4299,-4.4309,-4.4359,-4.4386,-4.4351,-4.4382,-4.4405,-4.4452,-4.4499,-4.4534,-4.462,-4.4611,-4.4652,-4.4632,-4.4724,-4.4638,-4.4647,-4.4634,-4.4631,-4.4636,-4.4742,-4.4745,-4.4747,-4.4749,0,-4.4421,-4.4407,-4.4448,-4.4486,-4.4519,-4.4547,-4.4571,-4.4599,-4.4565,-4.4601,-4.4653,-4.4681,-4.4736,-4.4783,-4.4819,-4.4824,-4.4782,-4.4776,-4.4796,-4.4809,-4.4815,-4.4813,-4.4533,-4.477,-4.4768,-4.4767,-4.4765,-4.4765,-4.4584,-4.4635,-4.4648,-4.4695,-4.4709,-4.4732,-4.4778,-4.4771,-4.4814,-4.4855,-4.4832,-4.4893,-4.4907,-4.4951,-4.4962,-4.5009,-4.4972,-4.5002,-4.501,-4.5018,-4.5028,-4.4808,-4.5015,-4.5014,-4.5014,-4.5013,-4.5013,0,-4.4801,-4.4806,-4.485,-4.4884,-4.4921,-4.4877,-4.49,-4.4934,-4.4988,-4.5005,-4.5041,-4.51,-4.5145,-4.514,-4.5181,-4.522,-4.5201,-4.5232,-4.5229,-4.5231,-4.5058,-4.5037,-4.5246,-4.5246,-4.5246,-4.5246,-4.5246,-4.5246,-4.4919,-4.5002,-4.499,-4.508,-4.5083,-4.5142,-4.5159,-4.518,-4.5193,-4.5262,-4.5299,-4.5295,-4.5303,-4.5344,-4.5383,-4.538,-4.5398,-4.5437,-4.5427,-4.5266,-4.5243,-4.5221,-4.52,-4.5441,-4.5441,-4.5595,-4.5596,-4.5597]}]]